User: anonymous   Login
Location: Keppel Henge
(44.7900°N, 80.9447°W)
Time: 23:54:54
(UTC-04:00)
Language:

Tiangong 1 - Orbit

View from above orbital plane
View from above orbital plane
View from above satellite
View from above satellite

Ground track
Ground track

The orbit data is extracted from the following two-line orbital elements,

1 37820U 11053A   17289.81692328  .00046154  89015-5  16860-3 0  9998
2 37820  42.7557 171.1426 0020094 231.2939 170.6562 15.88195170347240
Epoch (UTC): 16 October 2017 19:36:22
Eccentricity: 0.0020094
inclination: 42.7557°
perigee height: 294 km
apogee height: 321 km
right ascension of ascending node: 171.1426°
argument of perigee: 231.2939°
revolutions per day: 15.88195170
mean anomaly at epoch: 170.6562°
orbit number at epoch: 34724

The dashed part of the orbit path shows where the satellite is in the earth's shadow,  

DLR